US_Partners_Report 1

pictures.dealer.com

US_Partners_Report 1

11/7/2010 11/8/2010 XR119 C.R. Bard, Inc. 730 Central Avenue Murray Hill NJ 7974 US

11/7/2010 11/8/2010 ZZ692 BOC Group 575 Mountain Ave. Murray Hill NJ 7974 US

11/7/2010 11/8/2010 XZ123 Groundwater & Environmental Services 1340 Campus Parkway, Bldg. B Neptune NJ 7753 US

12/15/2010 11/8/2010 XL405 Johnson and Johnson 410 George Street New Brunswick NJ 8901 US Louise Davis-Lopez Fleet Manager 732-524-2972 llopez2@its.jnj.com

1/4/2011 11/8/2010 WD884 Horizon Blue Cross Blue Shield 3 Penn Plaza East Newark NJ 7105 US Julia McIver Fleet Administrator 973-466-4556 jmciver@horizonblue.com

11/7/2010 11/8/2010 UH123 Public Service Electric & Gas Company 80 Park Plaza Newark NJ 7101 US

1/1/2011 11/8/2010 VE120 GEA Companies 100 Fairway Ct NORTHVALE NJ 7647 US Arlene Decker Executive Assistant 201-767-3900 Arlene.Decker@geagroup.com

11/7/2010 11/8/2010 LX158 Empire Transport 55 Walnut Street , Suite 208 Norwood NJ 7648 US

11/7/2010 11/8/2010 XQ612 The Great Atlantic & Pacific Tea Company 2 Paragon Drive NORWOOD NJ 7648 US

7/14/2011 11/8/2010 WI943 Shiseido Americas Corporation 178 Bauer Drive Oakland NJ 7436 US Karen Borquez Associate Manager, Human Resources 201-405-2290 kborquez@sac.shiseido.com

12/5/2010 12/5/2010 1F623 SUN CHEMICALS 35 Waterview Boulevard Parisppany NJ 07054-1285 US Norma Conkle

11/7/2010 11/8/2010 ZZ714 The Hertz Corporation 225 Brae Boulevard PARK RIDGE NJ 7656 US

11/7/2010 11/8/2010 XD699 Sony 1 Sony Drive Park Ridge NJ 7656 US

11/15/2011 11/8/2010 AB945 Curtiss-Wright Corporation 10 Waterview Blvd Parsippany NJ 7054 US Heather Bravo HR Administrator 973-541-3700 hbravo@curtisswright.com

12/21/2011 11/8/2010 NY398 The Medicines Company 8 Sylvan Way Parsippany NJ 7054 US Laura Kish Mgr, HS Financial Analysis 973-290-6096 Laura.Kish@themedco.com

4/4/2011 4/4/2011 AE086 Jackson Hewitt 3 Sylvan Way Parsippany NJ 7054 US Linda Fagundes (401) 714-8664

11/7/2010 11/8/2010 VC648 Securitas 2 Campus Drive, P. O. Box 330 Parsippany NJ 7054 US Lisa Melvin

12/28/2010 12/28/2010 VT150 Quintiles 10 Waterview Boulevard Parsippany NJ 7054 US Lisa Pars (973) 257-5420 lisa.pars@quintiles.com

12/8/2010 11/8/2010 XQ352 Sun Chemical Corporation 35 WATERVIEW BLVD PARSIPPANY NJ 7054 US Norma Conkle Fleet & Travel Administrator 973-404-6000 norma.conkle@sunchemical.com

11/7/2010 11/8/2010 AE004 New Concept Leasing 3700 Route 46 Parsippany NJ 7054 US Pete Linder

7/28/2011 11/8/2010 NZ791 Wyndham Worldwide 22 Sylvan Way PARSIPPANY NJ 7054 US Tori Duga Director 973-753-6704 tori.duga@wyn.com

11/7/2010 11/8/2010 WJ981 Evonik Degussa Corporation 379 Interpace Parkway Parsippany NJ 7054 US

11/7/2010 11/8/2010 AB997 DSM 45 Waterview boulevard PARSIPPANY NJ 7054 US

11/7/2010 11/8/2010 NJ614 Daiichi Sankyo US Two Hilton Court Parsippany NJ 7054 US

11/7/2010 11/8/2010 WA024 Avis Budget Group 6 Sylvan Way Parsippany NJ 7054 US

11/7/2010 11/8/2010 VG009 The Trane Company One Centennial Ave. Piscataway NJ 8855 US

1/24/2011 11/8/2010 XA170 Bristol-Myers Squibb Co. 777 Scudder Mills Road Plainsboro NJ 8536 US Jerome Whitson Senior Fleet Analyst 609-897-2000 609-897-4853 jerome.whitson@bms.com

2/4/2011 1/31/2011 2C413 Bristol Myers Squibb 777 Scudders Mill Road Plainsboro NJ 8536 US Jerome Whitson Senior Fleet Analyst 609-897-4853 jerome.whitson@bms.com

11/7/2010 11/8/2010 WA472 Firmenich 250 Plainsboro Road Plainsboro NJ 8543 US Ken Gries

11/7/2010 11/8/2010 AD942 FAPS, Inc. Bldg. 371 Craneway Street Port Newark NJ 07114-3114 US Gary Lobue Owner 973 589-5656 0 lobueg@fapsinc.com

12/5/2010 12/5/2010 8N222 NOVO NORDISK INC> 100 College Road west Princeton NJ 8540 US Donna Bibbo 609-9875466

12/7/2010 11/8/2010 VO135 Novo Nordisk Inc. 100 College Road West Princeton NJ 8450 US Donna Bibbo Manager, Fleet & Travel 6099875466 dbib@novonordisk.com

2/8/2011 11/8/2010 VL927 Bracco Diagnostics, Inc. 107 College Road East PRINCETON NJ 8540 US Karen Baldenko North America Fleet Administrator 609-514-2200 609-524-2875 karen.baldenko@diag.bracco.com

11/7/2010 11/8/2010 XY639 Dow Jones & Company, Inc. P.O. Box 300 PRINCETON NJ 8543 US

11/17/2010 11/8/2010 NL714 Wurth Group of North America 93 Grant Street Ramsey NJ 7446 US Ed Spess District Manager 215-527-2502 214-721-0977 edward.spess@wurthusa.com

2/4/2011 11/30/2010 AE020 Pierce Communications 800B Lake Street Ramsey NJ 7446 US Len Addison President 201-818-3330 laddison@piercecommunications.com

11/7/2010 11/8/2010 ZZ712 Pierce Communications 800 B Lake Street Ramsey NJ 7446 US

11/7/2010 11/8/2010 VG267 Inductotherm Corporation 10 Indel Avenue Rancocas NJ 8073 US

11/7/2010 11/8/2010 VK444 Warner Chilcott Labs 100 Enterprise Drive Rockaway NJ 7866 US

1/6/2011 12/28/2010 AE028 NVC Logistics One Pond Road Rockleigh NJ 7647 US Justin Naddeo Director Eastern Region (201) 767-0910 x180 justin.naddeo@nvclogistics.com

11/19/2010 11/8/2010 AE005 Crestron Electronics Inc. 15 Volvo Drive Rockleigh NJ 7647 US Rosana Herrerias Employee Relations 201-767-3400 X 10411 Rherrerias@crestron.com

11/7/2010 11/8/2010 NQ360 Volvo I.T. North America 1 Volvo Drive, Building B Rockleigh NJ 7647 US

1/12/2011 11/8/2010 XA126 Automatic Data Processing 1 ADP Boulevard M/SB 125 Roseland NJ 7068 US Julian Fernandes Fleet Administrator (973) 974-5417 (973) 974-2721 julian_fernandes@adp.com

11/7/2010 11/8/2010 XE411 Panasonic One Panasonic Way 3B-1 Secaucus NJ 7094 US Dana Viri

11/7/2010 11/8/2010 AD959 Panasonic Computer Solutions 2 Panasonic Way Secaucus NJ 7094 US Jo Satilli Sr Area Manager North East 732-505-9739 973-303-7767 jo_satilli.panasonic.com

12/6/2010 11/8/2010 WV911 China Ocean Shipping Co 100 Lighting Way SECAUCUS NJ 7094 US Lenny Wassil Auto Fleet Supervisor 201-422-0500 ext 8430 lwassil@cosco-usa.com

11/7/2010 11/8/2010 ZZ698 Dun & Bradstreet 103 JFK Parkway Short Hills NJ 7078 US

11/7/2010 11/8/2010 AC387 ConvaTec 100 Headquarters Park Drive Skillman NJ 8558 US Adam Winik

11/7/2010 11/8/2010 XX933 Meda Pharma 265 Davidson Avenue Suite 300 Somerset NJ 8873 US Tom Bennis

11/7/2010 11/8/2010 ZZ716 Ventiv Health U.S. Sales 200 Cottontail, Vantage Ct. N. Somerset NJ 8873 US

11/7/2010 11/8/2010 AB348 Catalent Pharma Solutions Inc. 14 Schoolhouse Road SOMERSET NJ 8873 US

11/7/2010 11/8/2010 VU952 Inventiv Health 500 Atrium Drive Sommerset NJ 8873 US Warren Dudek

11/7/2010 11/8/2010 VQ169 Celgene Corp 86 Morris Ave SUMMIT NJ 7901 US

11/7/2010 11/8/2010 NX999 Univision Communications, Inc 500 Frank W. burr Blvd., 1st Floor Teaneck NJ 7666 US

11/7/2010 11/8/2010 XY163 Pearson 1 Lake Street Upper Saddle River NJ 7458 US Donna Lamarca

11/7/2010 11/8/2010 VN426 Professional Detailing, Inc. 10 Mountainview Road Upper Saddle River NJ 7458 US

11/7/2010 11/8/2010 XQ699 Benjamin Moore and Co 101 Paragon Drive WANAQUE NJ 7465 US

11/7/2010 11/8/2010 XA123 Chubb & Son, Inc. 15 Mountain View Road Warren NJ 7059 US

2/24/2011 11/8/2010 WP711 JVC Americas Corp 1700 Valley Road Wayne NJ 7470 US Adrienne McCarron National Administrator Procurement Dpt 9733175278 9733175000 amccarron@jvc.com

1/28/2011 11/30/2010 VW798 Castrol 1500 Valley Road Wayne NJ 7470 US Paul Giblett Communications Mgr 973-633-2241 973-633-2200 paul.giblett@castrol.com

1/29/2011 11/8/2010 ZZ037 BP America Inc. 1500 Valley Road Wayne NJ 7470 US Paul Giblett Communications Mgr 973-633-2241 862-368-8886 paul.giblett@bp.com

11/7/2010 11/8/2010 WQ217 Toys R Us, Inc One Geoffrey Way Wayne NJ 7470 US

11/7/2010 11/8/2010 NX277 GAF Master Elite 1361 Alps Rd. Wayne NJ 7470 US

11/7/2010 11/8/2010 ZZ691 BMCA ISP Management Company 1361 Alps Road Wayne NJ 7470 US

11/7/2010 11/8/2010 ZZ704 Hankook Tire America Corp 1450 Valley Road Wayne NJ 7470 US

3/13/2011 3/4/2011 AE070 SBHCS (Saint Barnabas Health Care System) 95 Old Short Hills Rd. West Orange NJ 7052 US

12/20/2011 11/8/2010 XC710 Merck One Merck Drive Whitehouse Station NJ 8889 US Eric Aragon Lead Executive Representative 908-423-5862 eric_aragon@merck.com

3/13/2011 3/4/2011 AE066 Quick Chek 3 Old Highway 28 Whitehouse Station NJ 8889 US

11/7/2010 11/8/2010 WY289 Eisai, Inc. 100 Tice Boulevard WOODCLIFF LAKE NJ 7677 US Anne O'Neill-Regan

2/22/2011 11/8/2010 AD946 Wallenius Wilhelmson Logistics 188 Broadway Woodcliff Lake NJ 7677 US Debbi Madan HR Generalist 201 307-1300 debbi.madan@2wglobal.com

11/7/2010 11/8/2010 AB788 Wallenius Wilhelmsen Logistics P.O. Box 1232 WOODCLIFF LAKE NJ 7677 US

11/7/2010 11/8/2010 AD971 BMW of North America, LLC 300 Chestnut Ridge Road Woodcliff Lake NJ 7675 US

12/5/2010 12/5/2010 2C049 BENJAMIN MOORE & CO 101 Paragon Drive NJ 7645 US Rosalie Falato 201-9496794

11/7/2010 11/8/2010 ZZ719 New Mexico (University of) Faculty Anderson School of Mgt. - 2148 Albuquerque NM 87131 US

11/7/2010 11/8/2010 AC202 New Mexico Gas Company 7120 Wyoming Blvd NE, Ste 200 ALBUQUERQUE NM 87109 US

11/7/2010 11/8/2010 ZZ720 Nova Bus 42 Earl Cummings Loop West Roswell NM 88202 US

11/7/2010 11/8/2010 ZZ721 PNM - Public Service Comp. of New Mexico P.O. Box 1268 Santa Fe NM 87501 US

1/31/2011 11/30/2010 AE015 Dealer Service Academy 37 Gordon Court Lower Sackville NS B4E 1W5 US Shawn Ryder Co-Founder 902-488-4107 shawn@dealerserviceacademy.com

11/7/2010 11/8/2010 VU213 Barrick Gold 27 miles North of Carlin Carlin NV 89822 US

11/7/2010 11/8/2010 XG383 Newmont Mining Corporation PO Box 69 GOLCONDA NV 89414 US

11/7/2010 11/8/2010 UH148 Southwest Gas Corporation 5241 Spring Mountain Road Las Vegas NV 89150 US Randy Jackson

11/7/2010 11/8/2010 NQ497 MGM MIRAGE 3260 INDUSTRIAL RD LAS VEGAS NV 89109 US

11/7/2010 11/8/2010 XX262 Yellow Checker Star Taxi 3950 W. Tompkins Ave. Las Vegas NV 89103 US

11/7/2010 11/8/2010 YB989 Ahern Rentals 1611 W. Bonanza Rd. LAS VEGAS NV 89106 US

11/7/2010 11/8/2010 ZZ685 Shelby Automotives, Inc 6755 Speedway Blvd LAS VEGAS NV 89115 US

11/7/2010 11/8/2010 KX160 Whittlesea-Bell Transportation 1900 Industrial Road Las Vegas NV 89102 US

11/7/2010 11/8/2010 NN195 Dyncorp - RSS 3965 West Cheyenne Avenue North Las Vegas NV 89030 US

2/18/2011 11/8/2010 XY287 Kinross Gold USA Inc 5370 Kietzke Lane #102 RENO NV 89511 US Kirk McLellan Regional Supply Manager NA 775-829-1000 775-823-8545 kirk.mclellan@kinross.com

11/7/2010 11/8/2010 UH578 Sierra Pacific Power 6100 Neil Road Reno NV 89511 US

3/17/2011 3/7/2011 AE080 Volvo Club of America PO Box 16 Afton NY 13730 US John Holtzapple President 607-639-2279 717-394-1799 johnhapple@comcast.net

11/7/2010 11/8/2010 WL454 Mark IV Industries 501 John James Audubon Parkway Amherst NY 14228 US

11/7/2010 11/8/2010 WN404 Columbus McKinnon Corp 140 John James Audubon Pkwy Amherst NY 14228 US

11/7/2010 11/8/2010 VW605 Nu-Vision Technologies 6000 New Horizons Blvd AMITYVILLE NY 11701 US

7/13/2011 11/8/2010 WP929 BWP Distributors 215 Business Park Drive Armonk NY 10504 US JR Setteducati Director of Human Resources 914-765-8500 x221 jr.setteducati@cqbwp.com

More magazines by this user
Similar magazines